Regional Weather Roundup
Issued by NWS Green Bay, WI

Home | Current Version | Previous Version | Graphics & Text | Print | Product List | Glossary Off
Versions: 1 2 3 4 5 6 7 8 9 10 11 12 13 14 15 16 17 18 19 20 21 22 23 24 25 26 27 28 29 30 31 32 33 34 35 36 37 38 39 40 41 42 43 44 45 46 47 48 49 50

000
ASUS43 KGRB 251659
RWRGRB

NORTH-CENTRAL AND NORTHEAST WISCONSIN REGIONAL WEATHER ROUNDUP
NATIONAL WEATHER SERVICE GREEN BAY WI
1200 PM CDT FRI JUL 25 2014

WIZ005-009-010>012-018-019-251800-
NORTH CENTRAL WISCONSIN

CITY           SKY/WX    TMP DP  RH WIND       PRES   REMARKS
IRONWOOD       NOT AVBL
MANITOWISH WTR NOT AVBL
ARBOR VITAE    NOT AVBL
EAGLE RIVER    NOT AVBL
LAND O LAKES   NOT AVBL
RHINELANDER    CLOUDY    66  59  78 SW12      29.91R
PHILLIPS       NOT AVBL
ANTIGO         NOT AVBL
TOMAHAWK       NOT AVBL
MERRILL        NOT AVBL
$$

WIZ013-073-251800-
NORTHEAST WISCONSIN

CITY           SKY/WX    TMP DP  RH WIND       PRES   REMARKS
IRON MOUNTAIN  CLOUDY    72  57  59 S12       29.88F
MARINETTE      CLOUDY    70  57  64 SW7       29.91R
$$

WIZ017-030-035>037-045-251800-
CENTRAL WISCONSIN

CITY           SKY/WX    TMP DP  RH WIND       PRES   REMARKS
MEDFORD        NOT AVBL
WAUSAU         CLOUDY    65  59  81 S12       29.88F
MOSINEE        CLOUDY    63  63 100 S9        29.92F
MARSHFIELD     CLOUDY    64  59  83 S5        29.91R
WISC RAPIDS    CLOUDY    66  59  78 VRB6      29.92R
STEVENS POINT  NOT AVBL
WAUPACA        NOT AVBL
SHAWANO        NOT AVBL
CLINTONVILLE   NOT AVBL
$$

WIZ038-039-048-051-251800-
FOX VALLEY

CITY           SKY/WX    TMP DP  RH WIND       PRES   REMARKS
NWS GREEN BAY  LGT RAIN  68  60  75 S9        29.93S
APPLETON       CLOUDY    68  55  64 SW12      29.94S
OSHKOSH        CLOUDY    68  59  73 S12       29.93F
FOND DU LAC    CLOUDY    67  57  70 SW13      29.95S
$$

WIZ022-050-052-251800-
EAST CENTRAL WISCONSIN

CITY           SKY/WX    TMP DP  RH WIND       PRES   REMARKS
STURGEON BAY   CLOUDY    72  55  56 S12       29.93R
MANITOWOC      NOT AVBL
SHEBOYGAN      CLOUDY    72  57  59 SW17      29.95R
$$

LMZ563-521-522-541>543-251800-
LAKESHORE

STATION/POSITION TIME  TEMP    WIND        PRES    VSBY  WAVE
                       AIR SEA DIR/SP/G                  HT/PER
                 (UTC) (F)     (DEG/KT/KT) (MB)    (MI)  (FT/S)
SHEBOYGAN LKSHOR 1600   61     150/ 14/ 15 1013.9F
KEWAUNEE LKSHORE 1600   56     170/ 12/ 12 1014.4R
NORTHPORT PIER   1600   68     140/  9/ 11 1012.9S
N MID LAKE BUOY  1600   58 55  190/ 12/ 14 1012.8F         2/ 4
CHAMBERS ISLAND  1600   69     180/  8/ 13 1012.9F
MENOMINEE LKSHOR 1600   68     190/  6/  8 1013.7R
$$


USA.gov is the U.S. government's official web portal to all federal, state and local government web resources and services.